Regional Weather Roundup
Issued by NWS

Home | Current Version | Previous Version | Text Only | Print | Product List | Glossary On
Versions: 1 2 3 4 5 6 7 8 9 10 11 12 13 14 15 16 17 18 19 20 21 22 23 24 25 26 27 28 29 30 31 32 33 34 35 36 37 38 39 40 41 42 43 44 45 46 47 48 49 50
000
ASUS42 KFFC 300310
RWRGA
WEATHER ROUNDUP FOR GEORGIA
NATIONAL WEATHER SERVICE PEACHTREE CITY GA
1100 PM EDT SAT APR 29 2017

NOTE: "FAIR" INDICATES FEW OR NO CLOUDS BELOW 12,000 FEET WITH NO
SIGNIFICANT WEATHER AND/OR OBSTRUCTIONS TO VISIBILITY.

* = USE WITH CAUTION. THE STATIONS MARKED WITH AN ASTERISK MAY NOT
REPORT WEATHER SUCH AS PRECIPITATION, FOG, OR THUNDER AND ARE NOT
QUALITY CONTROLLED BY NWS.

THE REMARK "TC" DENOTES TEMPERATURE READING IN DEGREES CELSIUS.

GAZ001>058-300400-
NORTH GEORGIA

CITY           SKY/WX    TMP DP  RH WIND       PRES   REMARKS
ATLANTA        MOCLDY    77  68  73 SE7       30.11R
ATHENS         PTCLDY    72  71  97 CALM      30.13R
CHAMBLEE       PTCLDY    76  66  71 SE5       30.11R
PEACHTREE CITY PTCLDY    69  67  93 CALM      30.11R
ROME           CLEAR     72  68  87 CALM      30.06R
WEST ATLANTA   CLEAR     78  69  73 SE5       30.09S
GAINESVILLE    CLEAR     72  70  93 E6        30.15S
CARTERSVILLE   CLEAR     72  65  78 SE5       30.09R


CITY           SKY/WX    TMP DP  RH WIND       PRES   REMARKS
DALTON*        PTCLDY    72  70  94 CALM      30.07R
MARIETTA       PTCLDY    78  67  69 SE7       30.10S
KENNESAW*      CLEAR     77  66  69 SE7       30.07R
CANTON*        PTCLDY    77  63  61 E6        30.13R
$$

GAZ059>098-102>109-300400-
CENTRAL GEORGIA

CITY           SKY/WX    TMP DP  RH WIND       PRES   REMARKS
AUGUSTA-BUSH   PTCLDY    76  68  76 SE7       30.14R
AUGUSTA-DANIEL PTCLDY    76  65  68 SE9       30.16R
COLUMBUS       CLEAR     78  66  66 S6        30.08R
MACON          MOCLDY    79  68  69 SE9       30.11R
ROBINS AFB     MOCLDY    77  69  76 SE7       30.11R


CITY           SKY/WX    TMP DP  RH WIND       PRES   REMARKS
LAGRANGE*      CLEAR     72  71  97 CALM      30.09R
SYLVANIA*      PTCLDY   N/A N/A N/A CALM      30.18R
MILLEDGEVILLE* CLEAR     73  70  88 S5        30.12R
$$

GAZ099>101-110>166-300400-
SOUTH GEORGIA

CITY           SKY/WX    TMP DP  RH WIND       PRES   REMARKS
SAVANNAH       PTCLDY    75  68  78 SE10      30.17S
VALDOSTA       MOCLDY    79  68  69 SE8       30.10R
ALMA           PTCLDY    74  69  85 SE8       30.13R
ST SIMONS      PTCLDY    76  71  85 SE12      30.16R
FT STEWART     PTCLDY    71  68  89 SE6       30.14S
ALBANY         CLEAR     75  66  73 CALM      30.10R
HUNTER AFB     PTCLDY    75  75  99 SE7       30.15R FOG
MOODY AFB      MOCLDY    79  67  65 SE8       30.09R
BRUNSWICK      PTCLDY    77  73  88 SE9       30.17R


CITY           SKY/WX    TMP DP  RH WIND       PRES   REMARKS
BAINBRIDGE*    PTCLDY    73  68  83 CALM      30.06F
MOULTRIE*      CLEAR     73  68  83 CALM      30.10R
VIDALIA*       PTCLDY    75  68  78 SE8       30.15R
WAYCROSS*      PTCLDY    77  73  89 SE10      30.14R
DOUGLAS*       PTCLDY    77  64  65 SE5       30.14R
$$



USA.gov is the U.S. government's official web portal to all federal, state and local government web resources and services.